Regional Weather Roundup
Issued by NWS

Home | Current Version | Previous Version | Graphics & Text | Print | Product List | Glossary Off
Versions: 1 2 3 4 5 6 7 8 9 10 11 12 13 14 15 16 17 18 19 20 21 22 23 24 25 26 27 28 29 30 31 32 33 34 35 36 37 38 39 40 41 42 43 44 45 46 47 48 49 50

000
ASUS43 KTOP 260159
RWRKS

WEATHER ROUNDUP FOR KANSAS
NATIONAL WEATHER SERVICE GOODLAND KS
900 PM CDT MON MAY 25 2015

NOTE:  "FAIR" INDICATES FEW OR NO CLOUDS BELOW 12,000 FEET WITH NO
SIGNIFICANT WEATHER AND/OR OBSTRUCTIONS TO VISIBILITY.

KSZ001>006-013>018-027>032-041>047-260300-
NORTHWEST KANSAS

CITY           SKY/WX    TMP DP  RH WIND       PRES   REMARKS
GOODLAND       CLEAR     58  47  66 N15       29.86R
HAYS           CLOUDY    68  57  68 S8        29.79S
HILL CITY      CLOUDY    68  52  56 NW7       29.80R
RUSSELL        CLOUDY    64  60  87 S8        29.76F
$$

KSZ061>065-074>080-084>089-260300-
SOUTHWEST KANSAS

CITY           SKY/WX    TMP DP  RH WIND       PRES   REMARKS
DODGE CITY     MOCLDY    64  52  64 S7        29.83R
ELKHART          N/A     69  48  47 SW3         N/A
GARDEN CITY    MOCLDY    69  51  52 S3        29.81R
GREAT BEND     CLOUDY    66  57  72 E8        29.80S
LIBERAL        PTCLDY    63  50  63 S9        29.85R
$$

KSZ066>073-081>083-090>101-260300-
SOUTHEAST KANSAS

CITY           SKY/WX    TMP DP  RH WIND       PRES   REMARKS
CHANUTE        TSTM      67  63  87 S17G38    29.83R FOG
COFFEYVILLE    LGT RAIN  64  61  90 E5        29.80F
HUTCHINSON     LGT RAIN  63  56  78 SE14      29.81R
NEWTON         CLOUDY    63  52  67 W7        29.82F
PARSONS        CLOUDY    67  58  72 SE12G20   29.83R
WICHITA INTL   LGT RAIN  62  57  83 W10       29.82F
WICHITA JABRA  RAIN      61  57  87 SW8       29.84S
WINFIELD       CLOUDY    62  59  90 NW10      29.87R
$$

KSZ007>012-019>026-033>040-048>060-102>105-260300-
NORTHEAST KANSAS

CITY           SKY/WX    TMP DP  RH WIND       PRES   REMARKS
CONCORDIA      CLOUDY    62  56  80 SW10      29.75F
EMPORIA        CLOUDY    72  67  84 SE10      29.80S
LAWRENCE       CLOUDY    73  66  78 SE6       29.83R
MANHATTAN      LGT RAIN  62  60  93 E3        29.78F
OLATHE IND     CLOUDY    72  65  78 SE6       29.85R
OLATHE EXE     CLOUDY    73  66  78 CALM      29.84R
SALINA         CLOUDY    63  55  75 S9        29.78F
TOPEKA BILLARD CLOUDY    70  56  61 N9        29.82R
TOPEKA FORBES  CLOUDY    73  65  75 E3        29.81R
$$



USA.gov is the U.S. government's official web portal to all federal, state and local government web resources and services.